User: anonymous   Login
Location: Albany
(35.0000°S, 118.0000°E)
Time: 07:49:44
(UTC-05:00)
Language:

Cosmos 1346 Rocket - Orbit

View from above orbital plane
View from above orbital plane
View from above satellite
View from above satellite

Ground track
Ground track

The orbit data is extracted from the following two-line orbital elements,

1 13121U 82027B   17015.87500700 -.00000199  00000-0 -14321-4 0  9994
2 13121  81.1687 294.1436 0025095 313.9084  46.0068 15.08161916894024
Epoch (UTC): 15 January 2017 21:00:00
Eccentricity: 0.0025095
inclination: 81.1687°
perigee height: 524 km
apogee height: 559 km
right ascension of ascending node: 294.1436°
argument of perigee: 313.9084°
revolutions per day: 15.08161916
mean anomaly at epoch: 46.0068°
orbit number at epoch: 89402

The dashed part of the orbit path shows where the satellite is in the earth's shadow,  

DLR